Location: Medlow Airstrip Trail, Medlow Bath NSW 2780, Australia
(33.6682°S, 150.3233°E)
Time: 06:23:01
(UTC+11:00)

ISS - Visible Passes

Search period start: 19 March 2019 00:00
Search period end: 29 March 2019 00:00
Orbit: 406 x 411 km, 51.6° (Epoch: 19 March)

Date Brightness Start Highest point End Pass type
(mag) Time Alt. Az. Time Alt. Az. Time Alt. Az.
25 Mar -1.6 06:10:47 10° N 06:13:31 24° NE 06:16:18 10° ESE visible
26 Mar -0.8 05:21:17 10° NNE 05:22:38 12° NE 05:23:59 10° ENE visible
27 Mar -3.7 06:05:20 17° NW 06:07:44 79° NE 06:11:05 10° SE visible
28 Mar -2.3 05:16:58 34° ENE 05:16:58 34° ENE 05:19:47 10° ESE visible
